Hourly Data Report for February 02, 2022

RANKIN INLET A
NUNAVUT
Current Station Operator: NAVCAN

62°48'38.000" N
92°06'53.000" W
32.30 m
2303405
71083
YRT

Download Data

Hourly Data (February 2022)
Hourly Data Report for February 2, 2022
TIME
LST
Temp Definition
°C
Dew Point Definition
°C
Rel Hum Definition
%
Precip. Amount Definition
mm

Wind Dir Definition
10's deg

Wind Spd Definition
km/h
Visibility Definition
km
Stn Press Definition
kPa
Hmdx Definition


Wind Chill Definition


Weather Definition


00:00 -40.3 -45.0 62   35 28 4.8 100.49   -59 Ice Crystals,Blowing Snow
01:00 -40.0 -44.6 63   35 28 4.8 100.44   -58 Ice Crystals,Blowing Snow
02:00 -38.4 -43.0 63   35 37 4.8 100.45   -58 Ice Crystals,Blowing Snow
03:00 -37.0 -41.5 64   35 27 4.8 100.40   -54 Ice Crystals,Blowing Snow
04:00 -35.7 -40.2 65   35 34 4.8 100.38   -54 Ice Crystals,Blowing Snow
05:00 -35.3 -39.7 65   34 39 4.8 100.39   -54 Ice Crystals,Blowing Snow
06:00 -34.3 -38.7 65   34 42 4.8 100.37   -54 Ice Crystals,Blowing Snow
07:00 -33.9 -38.3 66   34 45 3.2 100.35   -54 Ice Crystals,Blowing Snow
08:00 -34.6 -38.9 65   34 43 1.6 100.39   -54 Ice Crystals,Blowing Snow
09:00 -35.9 -40.3 65   34 47 0.8 100.37   -57 Ice Crystals,Blowing Snow
10:00 -36.1 -40.5 65   35 41 0.8 100.40   -56 Ice Crystals,Blowing Snow
11:00 -36.1 -40.5 65   34 48 0.4 100.44   -57 Ice Crystals,Blowing Snow
12:00 -36.1 -40.6 64   34 50 0.2 100.42   -57 Ice Crystals,Blowing Snow
13:00 -36.1 -40.7 64   34 45 0.2 100.47   -57 Ice Crystals,Blowing Snow
14:00 -36.1 -40.7 64   34 42 0.4 100.50   -56 Ice Crystals,Blowing Snow
15:00 -36.1 -40.6 64   34 40 0.4 100.56   -56 Ice Crystals,Blowing Snow
16:00 -36.4 -40.9 64   34 53 0.4 100.52   -58 Ice Crystals,Blowing Snow
17:00 -36.6 -41.1 64   34 50 0.6 100.59   -58 Ice Crystals,Blowing Snow
18:00 -36.8 -41.3 64   34 45 0.8 100.63   -57 Ice Crystals,Blowing Snow
19:00 -36.9 -41.4 64   34 41 1.2 100.65   -57 Ice Crystals,Blowing Snow
20:00 -37.0 -41.5 64   33 48 1.2 100.66   -58 Ice Crystals,Blowing Snow
21:00 -36.8 -41.3 64   33 39 1.2 100.70   -56 Ice Crystals,Blowing Snow
22:00 -36.5 -41.0 64   33 54 1.6 100.60   -58 Ice Crystals,Blowing Snow
23:00 -36.5 -41.0 64   33 48 1.6 100.57   -58 Ice Crystals,Blowing Snow

Notes on Data Quality.

Legend

  • E = Estimated
  • M = Missing
  • NA = Not Available*
  • [empty] = Indicates an unobserved value
Date modified: